Weather History for KGPH - December, 2012

Change the Weather History Date:

Monday, December 24, 2012

  Actual Average (KMCI) Record (KMCI)
Temperature  
Mean Temperature 22 °F 30 °F  
Max Temperature 26 °F 38 °F 66 °F (1955)
Min Temperature 19 °F 21 °F -17 °F (1983)
Degree Days  
Heating Degree Days 42 35  
Month to date heating degree days 788  
Since 1 July heating degree days 1790  
Cooling Degree Days 0 0  
Month to date cooling degree days 0  
Year to date cooling degree days 1360  
Moisture  
Dew Point 16 °F    
Average Humidity 81    
Maximum Humidity 93    
Minimum Humidity 68    
Precipitation  
Precipitation 0.00 in 0.04 in 1.65 in (1895)
Month to date precipitation 1.27  
Year to date precipitation 38.60  
Snow  
Snow 0.00 in 0.20 in 4.80 in (1918)
Month to date snowfall 3.7  
Since 1 July snowfall 5.1  
Snow Depth -    
Sea Level Pressure  
Sea Level Pressure 30.07 in    
Wind  
Wind Speed 8 mph (NNW)    
Max Wind Speed 15 mph    
Max Gust Speed 23 mph    
Visibility 8 miles    
Events      
T = Trace of Precipitation, MM = Missing Value Source: NWS Daily Summary

Daily Weather History Graph

Daily Weather History Graph

Search for Another Location

Airport or City:

Trip Planner

Search our weather history database for the weather conditions in past years. The results will help you decide how hot, cold, wet, or windy it might be!

Date:

Astronomy

Dec. 24, 2012 Rise Set
Actual Time 7:35 AM CST 4:59 PM CST
Civil Twilight 7:04 AM CST 5:29 PM CST
Nautical Twilight 6:31 AM CST 6:03 PM CST
Astronomical Twilight 5:58 AM CST 6:35 PM CST
Moon 2:26 PM CST (12/24) 4:14 AM CST (12/24)
Length of Visible Light 10h 24m
Length of Day
9h 24m
Waxing Gibbous, 88% of the Moon is Illuminated
Dec 24
Waxing Gibbous
Dec 28
Full
Jan 4
Last Quarter
Jan 11
New
Jan 18
First Quarter

Hourly Weather History & Observations

Time (CST) Temp. Windchill Dew Point Humidity Pressure Visibility Wind Dir Wind Speed Gust Speed Precip Events Conditions
12:15 AM 26.6 °F 20.0 °F 23.0 °F 86% 29.95 in 7.0 mi NW 5.8 mph - N/A   Clear
12:35 AM 26.6 °F 21.2 °F 21.2 °F 80% 29.96 in 7.0 mi NW 4.6 mph - N/A   Unknown
12:55 AM 26.6 °F 18.2 °F 21.2 °F 80% 29.96 in 7.0 mi NW 8.1 mph - N/A   Clear
1:15 AM 24.8 °F 16.1 °F 21.2 °F 86% 29.96 in 7.0 mi NW 8.1 mph - N/A   Clear
1:35 AM 24.8 °F 15.3 °F 21.2 °F 86% 29.96 in 7.0 mi NW 9.2 mph - N/A   Clear
1:55 AM 23.0 °F 11.7 °F 21.2 °F 93% 29.98 in 7.0 mi NW 11.5 mph - N/A   Clear
2:15 AM 23.0 °F 13.9 °F 19.4 °F 86% 29.98 in 7.0 mi NW 8.1 mph - N/A   Clear
2:35 AM 23.0 °F 13.9 °F 19.4 °F 86% 29.98 in 7.0 mi NW 8.1 mph - N/A   Clear
2:55 AM 23.0 °F 14.7 °F 19.4 °F 86% 29.98 in 7.0 mi NW 6.9 mph - N/A   Clear
3:15 AM 21.2 °F 12.6 °F 19.4 °F 93% 29.97 in 7.0 mi NW 6.9 mph - N/A   Clear
3:55 AM 21.2 °F 10.9 °F 17.6 °F 86% 29.97 in 7.0 mi NW 9.2 mph - N/A   Clear
4:15 AM 21.2 °F 12.6 °F 17.6 °F 86% 29.97 in 5.0 mi NW 6.9 mph - N/A   Clear
4:35 AM 21.2 °F 13.6 °F 17.6 °F 86% 29.98 in 7.0 mi NW 5.8 mph - N/A   Clear
4:55 AM 21.2 °F 11.7 °F 17.6 °F 86% 29.99 in 5.0 mi NW 8.1 mph - N/A   Clear
5:15 AM 21.2 °F 10.9 °F 17.6 °F 86% 30.01 in 5.0 mi NW 9.2 mph - N/A   Scattered Clouds
5:35 AM 19.4 °F 7.2 °F 17.6 °F 93% 30.02 in 5.0 mi NNW 11.5 mph 18.4 mph N/A   Overcast
5:55 AM 21.2 °F 10.1 °F 17.6 °F 86% 30.03 in 5.0 mi NW 10.4 mph 16.1 mph N/A   Overcast
6:15 AM 19.4 °F 5.5 °F 17.6 °F 93% 30.03 in 4.0 mi NW 15.0 mph 23.0 mph N/A   Overcast
6:35 AM 19.4 °F 9.5 °F 17.6 °F 93% 30.03 in 4.0 mi NW 8.1 mph 16.1 mph N/A   Overcast
6:55 AM 19.4 °F 11.5 °F 17.6 °F 93% 30.04 in 3.0 mi NW 5.8 mph - N/A   Overcast
7:15 AM 21.2 °F 10.9 °F 19.4 °F 93% 30.05 in 4.0 mi NW 9.2 mph - N/A   Overcast
7:55 AM 21.2 °F 9.5 °F 19.4 °F 93% 30.05 in 5.0 mi NNW 11.5 mph - N/A   Overcast
8:15 AM 21.2 °F 11.7 °F 19.4 °F 93% 30.05 in 4.0 mi NW 8.1 mph - N/A   Overcast
8:35 AM 21.2 °F 11.7 °F 19.4 °F 93% 30.05 in 4.0 mi NW 8.1 mph 17.3 mph N/A   Overcast
8:55 AM 21.2 °F 10.1 °F 19.4 °F 93% 30.06 in 4.0 mi NW 10.4 mph 17.3 mph N/A   Overcast
9:15 AM 21.2 °F 11.7 °F 19.4 °F 93% 30.07 in 5.0 mi NNW 8.1 mph - N/A   Overcast
9:35 AM 23.0 °F 13.1 °F 19.4 °F 86% 30.07 in 5.0 mi NW 9.2 mph - N/A   Overcast
9:55 AM 23.0 °F 10.6 °F 17.6 °F 80% 30.07 in 5.0 mi NNW 13.8 mph - N/A   Haze
10:15 AM 23.0 °F 13.1 °F 19.4 °F 86% 30.10 in 5.0 mi NW 9.2 mph - N/A   Overcast
10:35 AM 21.2 °F 9.5 °F 17.6 °F 86% 30.10 in 5.0 mi NW 11.5 mph 16.1 mph N/A   Overcast
10:55 AM 21.2 °F 9.5 °F 17.6 °F 86% 30.09 in 10.0 mi NW 11.5 mph - N/A   Overcast
11:15 AM 21.2 °F 9.5 °F 15.8 °F 80% 30.10 in 10.0 mi NNW 11.5 mph 18.4 mph N/A   Mostly Cloudy
11:35 AM 21.2 °F 9.5 °F 14.0 °F 74% 30.09 in 10.0 mi NNW 11.5 mph - N/A   Mostly Cloudy
11:55 AM 21.2 °F 9.5 °F 14.0 °F 74% 30.07 in 10.0 mi NNW 11.5 mph - N/A   Scattered Clouds
12:15 PM 21.2 °F 9.5 °F 14.0 °F 74% 30.06 in 10.0 mi NNW 11.5 mph - N/A   Mostly Cloudy
12:35 PM 21.2 °F 9.5 °F 14.0 °F 74% 30.07 in 10.0 mi NNW 11.5 mph - N/A   Mostly Cloudy
12:55 PM 21.2 °F 8.3 °F 14.0 °F 74% 30.07 in 10.0 mi NNW 13.8 mph - N/A   Overcast
1:15 PM 21.2 °F 9.5 °F 15.8 °F 80% 30.07 in 10.0 mi North 11.5 mph - N/A   Overcast
1:35 PM 21.2 °F 9.5 °F 14.0 °F 74% 30.08 in 10.0 mi NNW 11.5 mph - N/A   Overcast
1:55 PM 21.2 °F 10.1 °F 14.0 °F 74% 30.07 in 10.0 mi NNW 10.4 mph - N/A   Overcast
2:15 PM 21.2 °F 8.9 °F 14.0 °F 74% 30.07 in 10.0 mi NNW 12.7 mph 17.3 mph N/A   Overcast
2:35 PM 21.2 °F 8.9 °F 14.0 °F 74% 30.07 in 10.0 mi NNW 12.7 mph - N/A   Mostly Cloudy
2:55 PM 23.0 °F 12.4 °F 15.8 °F 74% 30.09 in 10.0 mi NNW 10.4 mph - N/A   Mostly Cloudy
3:15 PM 23.0 °F 11.7 °F 14.0 °F 68% 30.10 in 10.0 mi NNW 11.5 mph - N/A   Overcast
3:35 PM 23.0 °F 10.6 °F 14.0 °F 68% 30.10 in 10.0 mi North 13.8 mph - N/A   Overcast
3:55 PM 23.0 °F 12.4 °F 14.0 °F 68% 30.10 in 10.0 mi NNW 10.4 mph - N/A   Overcast
4:15 PM 23.0 °F 11.7 °F 14.0 °F 68% 30.12 in 10.0 mi NNW 11.5 mph - N/A   Mostly Cloudy
4:35 PM 23.0 °F 12.4 °F 14.0 °F 68% 30.12 in 10.0 mi North 10.4 mph - N/A   Clear
4:55 PM 23.0 °F 14.7 °F 14.0 °F 68% 30.12 in 10.0 mi NNW 6.9 mph 10.4 mph N/A   Clear
5:15 PM 23.0 °F 14.7 °F 14.0 °F 68% 30.13 in 10.0 mi NNW 6.9 mph - N/A   Clear
5:35 PM 21.2 °F 12.6 °F 15.8 °F 80% 30.13 in 10.0 mi North 6.9 mph - N/A   Clear
5:55 PM 21.2 °F 14.9 °F 15.8 °F 80% 30.13 in 10.0 mi North 4.6 mph - N/A   Clear
6:15 PM 21.2 °F - 15.8 °F 80% 30.13 in 10.0 mi Calm Calm - N/A   Clear
6:35 PM 21.2 °F 16.4 °F 14.0 °F 74% 30.14 in 10.0 mi NNW 3.5 mph - N/A   Clear
6:55 PM 21.2 °F 16.4 °F 14.0 °F 74% 30.13 in 10.0 mi NNW 3.5 mph - N/A   Clear
7:15 PM 21.2 °F 14.9 °F 14.0 °F 74% 30.13 in 10.0 mi North 4.6 mph - N/A   Clear
7:35 PM 21.2 °F 14.9 °F 14.0 °F 74% 30.13 in 10.0 mi North 4.6 mph - N/A   Clear
7:55 PM 21.2 °F 13.6 °F 14.0 °F 74% 30.13 in 10.0 mi North 5.8 mph - N/A   Clear
8:15 PM 21.2 °F 12.6 °F 14.0 °F 74% 30.14 in 10.0 mi North 6.9 mph - N/A   Clear
8:35 PM 21.2 °F 14.9 °F 14.0 °F 74% 30.14 in 10.0 mi North 4.6 mph - N/A   Clear
8:55 PM 21.2 °F 14.9 °F 14.0 °F 74% 30.14 in 10.0 mi NNE 4.6 mph - N/A   Unknown
9:15 PM 21.2 °F 14.9 °F 14.0 °F 74% 30.15 in 10.0 mi North 4.6 mph - N/A   Unknown
9:35 PM 21.2 °F - 14.0 °F 74% 30.16 in 10.0 mi Calm Calm - N/A   Clear
9:55 PM 21.2 °F 13.6 °F 14.0 °F 74% 30.16 in 10.0 mi NNE 5.8 mph - N/A   Clear
10:15 PM 21.2 °F 13.6 °F 14.0 °F 74% 30.17 in 10.0 mi NNE 5.8 mph - N/A   Clear
10:35 PM 19.4 °F 11.5 °F 14.0 °F 80% 30.18 in 10.0 mi North 5.8 mph - N/A   Clear
10:55 PM 19.4 °F 11.5 °F 14.0 °F 80% 30.17 in 10.0 mi North 5.8 mph - N/A   Clear
11:15 PM 19.4 °F 11.5 °F 14.0 °F 80% 30.17 in 10.0 mi North 5.8 mph - N/A   Clear
11:35 PM 19.4 °F 12.8 °F 14.0 °F 80% 30.19 in 10.0 mi NNW 4.6 mph - N/A   Scattered Clouds
11:55 PM 19.4 °F 10.4 °F 14.0 °F 80% 30.19 in 10.0 mi North 6.9 mph - N/A   Scattered Clouds